QUETZSAT 1

Last updated on Mon Sep 15 2025 00:02:47 GMT+0000 (Coordinated Universal Time)

1 37826U 11054A 25257.26646310 -.00000254 00000+0 00000+0 0 9996 2 37826 0.0065 219.8316 0002544 313.7420 198.8657 1.00270932 47104
UTC large
Height (km)
Speed (km/s)
/
Latitude / Longitude
Inclination (degrees)
Orbital Period (minutes)
Azimuth
Elevation
Range (km)
Doppler Factor

Next 0 passes for location: London (51.5072 / 0.1276)

Sorry there are no passes over London.